Find Starlink 4429

NORAD ID: 53495 Int'l Des: 2022-099 Owner: SPXS Country: US Constellation: starlink operational
LEOCIRCULARRETROGRADESSO

Live Position

Loading 3D Globe...

About Starlink 4429

Description loading...

Upcoming Passes

Passes for default location (London). Set your location on the main map for personalized predictions.

Altitude History

Loading altitude history...

Two-Line Element Set

1 53495U 22099AG 26104.75775041 .00000222 00000-0 19566-4 0 9994
2 53495 97.6033 225.6415 0000838 100.3310 259.8011 15.05648527201404
Epoch: Apr 14, 2026 • Age: 8 hours

Current Status

Altitude 578.5 km
Velocity 7.57 km/s
Sub-Earth Point -82.27°S, 74.09°E
Launch Date Aug 12, 2022
Age 3.6 years
Type internet

Technical Details

Classification Payload
Mass 300.00 kg
Dry Mass 275.00 kg
Total Mass 300.00 kg
Length 0.20 m
Diameter 2.80 m
Span 9.00 m
Shape Box + pan
Manufacturer SPXS
Bus Type Starlink
Phase Status In Orbit
Owner/State SPXS/US

Most Searched